Showing default

GAOFEN 1-03, 43260

Orbit data source: Space-Track

GAOFEN 1-03, 43260 is a payload satellite owned by GGKGJ (CN) in SSO that was launched on Sat, 31 Mar 2018 UTC via a CHANG ZHENG 4C launch vehicle from the Taiyaun Space Center, China (TSC). Payload-class satellites include a variety of spacecraft equipped with specific instruments for various scientific and technological missions. These include communications satellites like Starlink; space stations such as the ISS; scientific satellites like the Hubble; Earth observation satellites from companies like Planet Labs, Umbra, and HawkEye 360; GPS; miniature CubeSats for education and research; and military/defense satellites.

Loading next visibility...
Identifier
43260, 2018-031B
Orbit
SSO
Country
Flag of CNCN / PRC
Related business
Manufacturer
DFH
Mission
Operational Civil Imaging
Bus & Motor
CAST-2000, AOCS
Mass
805 kg wet, ~700 kg dry
Launch date (UTC)
2018-03-31 (7 years ago)
Launch vehicle
CHANG ZHENG 4C
Launch site
Taiyaun Space Center, China (TSC)
Object type
Payload
Rocket body
Debris
Shape & HBR
Box + 2 Pan, 2.0 m
Radar Cross Section
4.991 m², Large (>1 m²)

Expand to show TLE details & history
Last TLE update: 8 hours ago

TLE from 8 hours ago
0 GAOFEN 1-03
1 43260U 18031B   25259.61717101  .00000596  00000-0  93268-4 0  9997
2 43260  98.0021 317.2042 0003770 189.0604 171.0539 14.76308482402321
Epoch: 2025-09-16T14:48Z
TLE epoch observation values (Epoch: 2025-09-16T14:48:43.575Z)
Latitude
0.00007°
Longitude
99.21773°
Altitude
646.629 km
Speed
7.533 km/s
True Right ascension
21h 08m 49s
True Declination
0° 00' 00"
Sunlit
Object was in full shadow at epoch
Visualization orbit readout
Latitude
Unknown
Longitude
Unknown
Altitude
Unknown
Speed
Unknown
Apparent Right ascension
Unknown
Apparent Declination
Unknown
Sunlit
N/A
Visualization observer readout
Local Sidereal Time
15:58:57
Azimuth
Unknown
Elevation
Unknown
Doppler factor
Unknown
Orbital elements
Apogee altitude
640.696 km
Perigee altitude
635.406 km
Semi-major axis
7,016.188 km
Eccentricity
0.00038
Inclination
98.0021°
RAAN
317.2042°
Arg. of periapsis
189.0604°
True anomaly
171.06061°
Mean anomaly
171.0539°
Eccentric anomaly
171.05726°
Mean motion
3.6931 °/min
Orbital period
97.48 mins
BSTAR
0.000093268
Loading maneuver chart data...
Computing Atmospheric mass density...
Loading historical data...
Loading historical data...
Loading historical data...
Loading historical data...
Loading historical data...
Loading historical data...
Loading historical data...

Documentation

Showing up to 5 results
|